ROU1945 CYYZ-CYZF

Flight info

Callsign ROU1945
Flight time N/A
Altitude 34000
Route IKLEN3 TONNY DCT BACMO DCT 5230N09000W/N0452F360 55N094W 58N100W 60N105W
Aircraft A320/M-SDE3FGHIRWY/LB1

Departure

Time N/A
Airport Toronto Pearson International Airport (CYYZ)

Arrival

Time 2026-05-06 17:10
Airport Yellowknife International Airport (CYZF)
Time Latitude Longitude Altitude Speed Heading
2026-05-06 16:54 62.06607 -112.50176 22255 ft 433 kts 299°
2026-05-06 16:55 62.08053 -112.55782 21526 ft 429 kts 300°
2026-05-06 16:55 62.09486 -112.61332 20805 ft 425 kts 300°
2026-05-06 16:55 62.10903 -112.66837 20098 ft 421 kts 299°
2026-05-06 16:55 62.12302 -112.72307 19418 ft 418 kts 299°
2026-05-06 16:56 62.13684 -112.77745 18751 ft 415 kts 299°
2026-05-06 16:56 62.15054 -112.83158 18052 ft 412 kts 300°
2026-05-06 16:56 62.16411 -112.88518 17406 ft 408 kts 299°
2026-05-06 16:56 62.17748 -112.93795 16882 ft 401 kts 299°
2026-05-06 16:57 62.19111 -112.99173 16249 ft 398 kts 299°
2026-05-06 16:57 62.20439 -113.04429 15702 ft 394 kts 299°
2026-05-06 16:57 62.21730 -113.09570 15162 ft 389 kts 299°
2026-05-06 16:57 62.23018 -113.14711 14636 ft 384 kts 298°
2026-05-06 16:58 62.24277 -113.19743 14102 ft 380 kts 298°
2026-05-06 16:58 62.25522 -113.24723 13527 ft 376 kts 298°
2026-05-06 16:58 62.26748 -113.29636 12960 ft 372 kts 298°
2026-05-06 16:58 62.27960 -113.34513 12368 ft 367 kts 298°
2026-05-06 16:59 62.29153 -113.39328 11789 ft 364 kts 298°
2026-05-06 16:59 62.30334 -113.44102 11251 ft 359 kts 298°
2026-05-06 16:59 62.31494 -113.48804 11116 ft 343 kts 298°
2026-05-06 16:59 62.32613 -113.53359 10982 ft 328 kts 297°
2026-05-06 17:00 62.33656 -113.57608 10857 ft 315 kts 297°
2026-05-06 17:00 62.34661 -113.61695 10735 ft 303 kts 297°
2026-05-06 17:00 62.35625 -113.65626 10608 ft 291 kts 297°
2026-05-06 17:00 62.36559 -113.69437 10487 ft 285 kts 297°
2026-05-06 17:01 62.37483 -113.73221 10404 ft 285 kts 297°
2026-05-06 17:01 62.38399 -113.76987 10273 ft 284 kts 297°
2026-05-06 17:01 62.39310 -113.80747 10147 ft 282 kts 297°
2026-05-06 17:01 62.40216 -113.84487 10016 ft 282 kts 297°
2026-05-06 17:02 62.41136 -113.88296 9418 ft 290 kts 296°
2026-05-06 17:02 62.42058 -113.92105 9099 ft 285 kts 297°
2026-05-06 17:02 62.42977 -113.95892 8692 ft 284 kts 296°
2026-05-06 17:02 62.43885 -113.99644 8029 ft 281 kts 296°
2026-05-06 17:03 62.44788 -114.03389 7314 ft 281 kts 295°
2026-05-06 17:03 62.45692 -114.07138 6599 ft 282 kts 294°
2026-05-06 17:03 62.46598 -114.10901 6120 ft 272 kts 294°
2026-05-06 17:03 62.47440 -114.14395 5941 ft 252 kts 295°
2026-05-06 17:04 62.48218 -114.17626 5846 ft 235 kts 294°
2026-05-06 17:04 62.48952 -114.20697 5741 ft 224 kts 294°
2026-05-06 17:04 62.49674 -114.23593 5634 ft 216 kts 301°
2026-05-06 17:04 62.50749 -114.25883 5543 ft 220 kts 326°
2026-05-06 17:05 62.52182 -114.27092 5243 ft 226 kts 352°
2026-05-06 17:05 62.53738 -114.27324 4910 ft 222 kts 357°
2026-05-06 17:05 62.55234 -114.27653 4539 ft 215 kts 345°
2026-05-06 17:05 62.56562 -114.28912 4256 ft 203 kts 322°
2026-05-06 17:06 62.57569 -114.30965 3989 ft 195 kts 300°
2026-05-06 17:06 62.58188 -114.33513 3717 ft 187 kts 279°
2026-05-06 17:06 62.58406 -114.36211 3465 ft 176 kts 261°
2026-05-06 17:06 62.58275 -114.38701 3227 ft 158 kts 244°
2026-05-06 17:07 62.57895 -114.40784 3014 ft 140 kts 229°
2026-05-06 17:07 62.57361 -114.42423 2820 ft 128 kts 217°
2026-05-06 17:07 62.56726 -114.43685 2642 ft 121 kts 205°
2026-05-06 17:07 62.56012 -114.44609 2477 ft 119 kts 196°
2026-05-06 17:08 62.55231 -114.45203 2308 ft 119 kts 186°
2026-05-06 17:08 62.54403 -114.45450 2142 ft 121 kts 177°
2026-05-06 17:08 62.53569 -114.45371 1966 ft 120 kts 172°
2026-05-06 17:08 62.52736 -114.45246 1793 ft 122 kts 171°
2026-05-06 17:09 62.51868 -114.45108 1594 ft 127 kts 172°
2026-05-06 17:09 62.50979 -114.44976 1423 ft 129 kts 173°
2026-05-06 17:09 62.50078 -114.44842 1276 ft 129 kts 171°
2026-05-06 17:09 62.49184 -114.44698 1073 ft 130 kts 172°
2026-05-06 17:10 62.48302 -114.44562 914 ft 126 kts 173°
2026-05-06 17:10 62.47727 -114.44471 803 ft 124 kts 170°
2026-05-06 17:10 62.46908 -114.44328 679 ft 105 kts 175°
2026-05-06 17:10 62.46445 -114.44258 684 ft 43 kts 176°
2026-05-06 17:11 62.46260 -114.44244 682 ft 13 kts 193°
2026-05-06 17:11 62.46207 -114.44225 684 ft 5 kts 67°
2026-05-06 17:11 62.46262 -114.44233 685 ft 14 kts 356°
2026-05-06 17:11 62.46407 -114.44255 685 ft 26 kts 355°
2026-05-06 17:12 62.46577 -114.44281 682 ft 24 kts 356°
2026-05-06 17:12 62.46736 -114.44306 683 ft 22 kts 355°
2026-05-06 17:12 62.46877 -114.44310 695 ft 17 kts 21°
2026-05-06 17:12 62.46946 -114.44120 681 ft 15 kts 57°
2026-05-06 17:13 62.46992 -114.44004 683 ft 8 kts 24°
2026-05-06 17:13 62.47039 -114.43995 684 ft 6 kts 20°
2026-05-06 17:13 62.47048 -114.43926 685 ft 5 kts 87°
2026-05-06 17:13 62.47050 -114.43874 685 ft 1 kts 86°
2026-05-06 17:14 62.47050 -114.43872 685 ft 0 kts 86°